TimeMST,TemperatureF,Dew PointF,Humidity,Sea Level PressureIn,VisibilityMPH,Wind Direction,Wind SpeedMPH,Gust SpeedMPH,PrecipitationIn,Events,Conditions,WindDirDegrees,DateUTC
12:15 AM,44.6,26.6,49,30.01,10.0,Calm,Calm,-,N/A,,Clear,0,2013-01-10 07:15:00
12:35 AM,41.0,24.8,53,30.00,10.0,NE,4.6,-,N/A,,Clear,50,2013-01-10 07:35:00
12:55 AM,42.8,24.8,49,30.01,10.0,NE,3.5,-,N/A,,Clear,40,2013-01-10 07:55:00
1:15 AM,42.8,24.8,49,30.00,10.0,NNE,5.8,-,N/A,,Clear,30,2013-01-10 08:15:00
1:35 AM,42.8,26.6,53,29.99,10.0,ENE,5.8,-,N/A,,Clear,60,2013-01-10 08:35:00
1:55 AM,42.8,24.8,49,29.99,10.0,ENE,6.9,-,N/A,,Clear,60,2013-01-10 08:55:00
2:15 AM,42.8,24.8,49,29.98,10.0,NE,4.6,-,N/A,,Clear,40,2013-01-10 09:15:00
2:35 AM,44.6,24.8,46,29.98,10.0,East,4.6,-,N/A,,Clear,90,2013-01-10 09:35:00
2:55 AM,44.6,24.8,46,29.98,10.0,ESE,5.8,-,N/A,,Clear,110,2013-01-10 09:55:00
3:15 AM,44.6,24.8,46,29.98,10.0,Calm,Calm,-,N/A,,Clear,0,2013-01-10 10:15:00
3:35 AM,42.8,24.8,49,29.98,10.0,Calm,Calm,-,N/A,,Clear,0,2013-01-10 10:35:00
3:55 AM,39.2,24.8,56,29.97,10.0,ENE,4.6,-,N/A,,Clear,60,2013-01-10 10:55:00
4:15 AM,41.0,24.8,53,29.96,10.0,ENE,4.6,-,N/A,,Clear,60,2013-01-10 11:15:00
4:35 AM,41.0,24.8,53,29.95,10.0,ENE,5.8,-,N/A,,Clear,60,2013-01-10 11:35:00
4:55 AM,41.0,24.8,53,29.94,10.0,ENE,6.9,-,N/A,,Clear,60,2013-01-10 11:55:00
5:35 AM,41.0,23.0,49,29.95,10.0,East,3.5,-,N/A,,Clear,80,2013-01-10 12:35:00
5:55 AM,42.8,23.0,46,29.95,10.0,East,8.1,-,N/A,,Clear,100,2013-01-10 12:55:00
6:15 AM,42.8,23.0,46,29.95,10.0,East,4.6,-,N/A,,Clear,100,2013-01-10 13:15:00
6:35 AM,41.0,23.0,49,29.95,10.0,East,4.6,-,N/A,,Clear,80,2013-01-10 13:35:00
6:55 AM,42.8,23.0,46,29.94,10.0,East,9.2,-,N/A,,Clear,90,2013-01-10 13:55:00
7:35 AM,42.8,21.2,42,29.94,10.0,East,6.9,-,N/A,,Clear,80,2013-01-10 14:35:00
7:55 AM,44.6,21.2,39,29.95,10.0,East,5.8,-,N/A,,Clear,80,2013-01-10 14:55:00
8:15 AM,46.4,21.2,37,29.95,10.0,ESE,6.9,-,N/A,,Clear,110,2013-01-10 15:15:00
8:55 AM,44.6,23.0,43,29.96,10.0,Calm,Calm,-,N/A,,Clear,0,2013-01-10 15:55:00
9:15 AM,48.2,23.0,37,29.96,10.0,ESE,8.1,-,N/A,,Clear,120,2013-01-10 16:15:00
9:35 AM,48.2,23.0,37,29.96,10.0,SE,8.1,-,N/A,,Clear,130,2013-01-10 16:35:00
9:55 AM,48.2,24.8,40,29.95,10.0,East,5.8,-,N/A,,Clear,80,2013-01-10 16:55:00
10:15 AM,51.8,24.8,35,29.96,10.0,ESE,4.6,-,N/A,,Clear,110,2013-01-10 17:15:00
10:35 AM,51.8,24.8,35,29.94,10.0,East,4.6,-,N/A,,Clear,100,2013-01-10 17:35:00
10:55 AM,53.6,24.8,33,29.92,10.0,East,5.8,-,N/A,,Clear,80,2013-01-10 17:55:00
11:15 AM,53.6,26.6,35,29.91,10.0,East,5.8,-,N/A,,Clear,80,2013-01-10 18:15:00
11:35 AM,55.4,26.6,33,29.89,10.0,East,9.2,-,N/A,,Clear,90,2013-01-10 18:35:00
11:55 AM,57.2,26.6,31,29.89,10.0,ESE,6.9,-,N/A,,Clear,120,2013-01-10 18:55:00
12:15 PM,59.0,26.6,29,29.88,10.0,ESE,8.1,-,N/A,,Clear,110,2013-01-10 19:15:00
12:35 PM,62.6,28.4,27,29.86,10.0,SE,5.8,-,N/A,,Clear,130,2013-01-10 19:35:00
12:55 PM,62.6,26.6,26,29.83,10.0,East,6.9,-,N/A,,Clear,90,2013-01-10 19:55:00
1:15 PM,62.6,28.4,27,29.83,10.0,East,4.6,-,N/A,,Clear,90,2013-01-10 20:15:00
1:35 PM,66.2,26.6,23,29.82,10.0,South,6.9,-,N/A,,Clear,170,2013-01-10 20:35:00
1:55 PM,66.2,26.6,23,29.81,3.0,SSW,17.3,26.5,N/A,,Clear,210,2013-01-10 20:55:00
2:15 PM,66.2,24.8,21,29.81,10.0,SW,17.3,-,N/A,,Clear,220,2013-01-10 21:15:00
2:35 PM,64.4,24.8,22,29.80,10.0,SW,10.4,-,N/A,,Clear,230,2013-01-10 21:35:00
2:55 PM,64.4,24.8,22,29.81,10.0,WSW,6.9,-,N/A,,Clear,240,2013-01-10 21:55:00
3:15 PM,64.4,24.8,22,29.81,10.0,SSW,11.5,-,N/A,,Clear,200,2013-01-10 22:15:00
3:35 PM,64.4,24.8,22,29.81,10.0,SSW,8.1,-,N/A,,Clear,200,2013-01-10 22:35:00
3:55 PM,64.4,24.8,22,29.82,10.0,SSW,13.8,-,N/A,,Scattered Clouds,210,2013-01-10 22:55:00
4:15 PM,64.4,23.0,21,29.82,10.0,SW,11.5,-,N/A,,Partly Cloudy,220,2013-01-10 23:15:00
4:35 PM,64.4,23.0,21,29.81,10.0,SW,8.1,-,N/A,,Mostly Cloudy,220,2013-01-10 23:35:00
4:55 PM,62.6,23.0,22,29.82,10.0,SW,10.4,17.3,N/A,,Mostly Cloudy,220,2013-01-10 23:55:00
5:15 PM,62.6,21.2,20,29.80,10.0,SSW,16.1,-,N/A,,Scattered Clouds,210,2013-01-11 00:15:00
5:35 PM,62.6,21.2,20,29.80,10.0,SW,10.4,-,N/A,,Clear,220,2013-01-11 00:35:00
5:55 PM,62.6,21.2,20,29.79,10.0,SW,10.4,-,N/A,,Clear,220,2013-01-11 00:55:00
6:15 PM,60.8,23.0,23,29.79,10.0,WSW,9.2,-,N/A,,Clear,250,2013-01-11 01:15:00
6:35 PM,60.8,23.0,23,29.80,10.0,WSW,5.8,-,N/A,,Clear,240,2013-01-11 01:35:00
6:55 PM,57.2,24.8,29,29.80,10.0,WNW,10.4,-,N/A,,Mostly Cloudy,300,2013-01-11 01:55:00
7:15 PM,57.2,26.6,31,29.80,10.0,WNW,5.8,-,N/A,,Overcast,300,2013-01-11 02:15:00
7:55 PM,55.4,30.2,38,29.82,10.0,Calm,Calm,-,N/A,,Clear,0,2013-01-11 02:55:00
8:15 PM,53.6,30.2,41,29.82,10.0,West,4.6,-,N/A,,Clear,280,2013-01-11 03:15:00
8:35 PM,53.6,32.0,44,29.83,10.0,Calm,Calm,-,N/A,,Mostly Cloudy,0,2013-01-11 03:35:00
8:55 PM,53.6,32.0,44,29.83,10.0,West,4.6,-,N/A,,Overcast,270,2013-01-11 03:55:00
9:15 PM,53.6,33.8,47,29.84,10.0,West,11.5,-,N/A,,Overcast,260,2013-01-11 04:15:00
9:35 PM,53.6,26.6,35,29.85,10.0,WSW,16.1,19.6,N/A,,Overcast,250,2013-01-11 04:35:00
9:55 PM,-9999,-9999,N/A,29.86,3.0,WSW,26.5,32.2,N/A,,Mostly Cloudy,250,2013-01-11 04:55:00
10:15 PM,48.2,28.4,46,29.88,9.0,WSW,18.4,28.8,N/A,,Overcast,250,2013-01-11 05:15:00
10:35 PM,46.4,30.2,53,29.88,10.0,West,16.1,25.3,N/A,,Overcast,260,2013-01-11 05:35:00
10:55 PM,46.4,30.2,53,29.88,10.0,WSW,13.8,18.4,N/A,,Overcast,250,2013-01-11 05:55:00
11:15 PM,48.2,26.6,43,29.89,10.0,West,16.1,25.3,N/A,,Overcast,270,2013-01-11 06:15:00
11:35 PM,48.2,24.8,40,29.88,10.0,West,20.7,26.5,N/A,,Overcast,270,2013-01-11 06:35:00
11:55 PM,48.2,21.2,34,29.90,10.0,West,18.4,27.6,N/A,,Overcast,260,2013-01-11 06:55:00